Back to catalog

ONEWEB-0588

AliveCommunicationsPO
NORAD 55153·PAYLOAD·🇬🇧 United Kingdom

Launched Jan 10, 2023 from Cape Canaveral Space Force Station

Loading…

Next Passes (next 24 hours)

TLE

FreshSource: CelesTrak SupGP

Epoch: Sep 14, 2026, 10:13 UTC

1 55153C 23004P   26257.42619630 -.00000524  00000+0 -13296-2 0  2573
2 55153  87.9155 317.7344 0001692 113.2375 300.5578 13.18683138    16

Track ONEWEB-0588 in real time with AllMySat

Download on the App Store